Location: Moena
(46.3667°N, 11.6500°E)
Time: 21:33:36
(UTC+00:00)

APEX - Pass Details

Date: 03 March 2021
Orbit: 332 x 1080 km, 69.9° (Epoch: 22 April)

Event Time Altitude Azimuth Distance (km) Brightness Sun altitude
Rises 17:43:30 0° 326° (NW) 2,217 6.9 -7.9°
Reaches altitude 10° 17:45:37 10° 319° (NW) 1,314 5.9 -8.2°
Maximum altitude 17:48:16 40° 247° (WSW) 513 3.8 -8.7°
Drops below altitude 10° 17:50:50 10° 175° (S) 1,265 5.1 -9.1°
Sets 17:52:49 0° 167° (SSE) 2,119 6.2 -9.5°
